Location: Newark
(35.9250°N, 105.0090°W)
Time: 21:11:30
(UTC+00:00)

N. Korean satellite - Visible Passes

Search period start: 20 September 2020 00:00
Search period end: 30 September 2020 00:00
Orbit: 455 x 503 km, 97.2° (Epoch: 20 September)

Date Brightness Start Highest point End Pass type
(mag) Time Alt. Az. Time Alt. Az. Time Alt. Az.
20 Sep 7.5 12:17:16 10° NNE 12:20:53 54° E 12:24:24 10° S visible
21 Sep 9.3 11:51:49 10° NE 11:54:48 23° E 11:57:43 10° SSE visible
22 Sep 10.2 11:27:46 10° ENE 11:28:37 11° E 11:29:29 10° ESE visible
24 Sep 8.3 12:06:46 10° NNE 12:10:10 37° E 12:13:30 10° SSE visible
25 Sep 9.7 11:41:37 10° NE 11:44:03 17° E 11:46:26 10° SE visible
27 Sep 7.1 12:21:54 10° NNE 12:25:29 64° E 12:28:59 10° S visible
28 Sep 9.0 11:56:19 10° NE 11:59:24 26° E 12:02:26 10° SSE visible
29 Sep 10.0 11:31:44 10° ENE 11:33:14 12° E 11:34:42 10° ESE visible
